Location: Bessat
(45.8735°N, 1.9924°E)
Time: 20:38:12
(UTC+00:00)

Cosmos 1680 Rocket - Pass Details

Date: 11 May 2021
Orbit: 759 x 781 km, 74.1° (Epoch: 20 June)

Event Time Altitude Azimuth Distance (km) Brightness Sun altitude
Rises 22:05:55 0° 338° (NNW) 3,276 8.3 -21.9°
Reaches altitude 10° 22:08:18 10° 338° (NNW) 2,345 7.2 -22.1°
Maximum altitude 22:13:39 87° 252° (WSW) 789 3.4 -22.5°
Enters shadow 22:14:52 55° 165° (SSE) 935 3.5 -22.6°
